Location: Kam�li
(14.6864°N, 3.1482°W)
Time: 01:36:32
(UTC+00:00)

IRS-1C Rocket - Pass Details

Date: 29 October 2020
Orbit: 800 x 805 km, 99.0° (Epoch: 02 December)

Event Time Altitude Azimuth Distance (km) Brightness Sun altitude
Rises 18:20:31 0° 153° (SSE) 3,300 7.1 -9.2°
Reaches altitude 10° 18:22:56 10° 147° (SSE) 2,372 6.3 -9.8°
Maximum altitude 18:27:55 45° 75° (ENE) 1,080 4.3 -10.9°
Drops below altitude 10° 18:32:54 10° 4° (N) 2,377 6.4 -12.1°
Sets 18:35:18 0° 358° (N) 3,308 7.2 -12.7°
